www.pogodaiklimat.ru

Погода и климат >> Архив погоды >> Парагвай >> Пуэрто-Касадо


ПОГОДА в Пуэрто-Касадо

  • Прогноз погоды в Пуэрто-Касадо
  • Монитор погоды в Пуэрто-Касадо

АРХИВ ПОГОДЫ в Пуэрто-Касадо

Время (UTC), дата Ветер
(напр.,м/с)
 
Видим.   Явления Облачность Т
(С)
Тd
(С)
f
(%)
Тe
(С)
Тes
(С)
Комфортность P
(гПа)
Po
(гПа)
Тmin
(С)
Tmax
(С)
R
(мм)
R24
(мм)
S
(см)
09 12.05 Ю 3 10 км дождь 10/10 240 м
[Sc]
+18.0 +16.3 90 +18 +18 1016.8 1007.6 4
12 12.05 Ю 2 20 км в посл. час дождь 10/10 240 м
[St]
+18.6 +16.0 85 +20 +20 1017.2 1008.0 +18.0 3
15 12.05 Ю 4 20 км 10/10 240 м
[Sc]
+18.0 +16.6 92 +18 +18 1018.6 1009.3
18 12.05 Ю 5 20 км 10/10 300 м
[Sc]
+17.0 +13.8 81 +16 +16 1019.5 1010.2
21 12.05 Ю 4 20 км 10/10 360 м
[Sc]
+16.8 +13.6 81 +16 +16 1019.8 1010.5
00 13.05 Ю 4 20 км 10/10 300 м
[Sc]
+15.6 +13.0 85 +15 +15 1020.3 1010.9 +21.0
03 13.05 Ю 4 20 км 10/10 300 м
[Sc]
+15.0 +14.0 94 +14 +14 1020.7 1011.3
06 13.05 Ю 2 20 км 8/0 2000 м
[Ac As]
+14.6 +13.2 91 +14 +14 1020.7 1011.3
09 13.05 штиль 0 20 км ясно +14.0 +12.1 88 +14 +14 1019.9 1010.5
12 13.05 штиль 0 20 км 8/5 450 м
[Sc Ci]
+15.4 +14.7 96 +15 +17 1021.6 1012.2 +14.0
15 13.05 ЮВ 2 20 км 8/6 450 м
[Sc Ci]
+19.2 +13.9 71 +21 +25 комфорт 1022.5 1013.2
18 13.05 Ю 4 20 км 8/5 900 м
[Cu med, cong Ci]
+22.8 +14.7 60 +26 +29 жарко 1020.9 1011.8
21 13.05 штиль 0 20 км 8/1 900 м
[Cu med, cong Cs]
+22.0 +13.6 59 +25 +25 комфорт 1022.6 1013.4
03 14.05 Ю 4 20 км 10/10 300 м
[Sc]
+15.0 +14.0 94 +14 +14 1020.7 1011.3
12 14.05 штиль 0 20 км ясно +14.4 +13.7 96 +14 +17 1025.0 1016.0 +13.0
15 14.05 Ю 3 20 км 4/4 800 м
[Cu hum]
+21.2 +14.0 63 +24 +30 комфорт 1027.1 1017.9
18 14.05 Ю 3 20 км 3/3 800 м
[Cu hum]
+23.6 +17.8 70 +28 +32 душно 1024.0 1014.8
21 14.05 Ю 3 20 км ясно +22.6 +16.7 69 +27 +27 душно 1021.0 1011.8
00 15.05 штиль 0 20 км ясно +17.0 +13.4 79 +17 +17 1022.0 1012.8 +25.0
03 15.05 штиль 0 20 км ясно +15.8 +12.2 79 +16 +16 1023.0 1013.8
09 15.05 Ю 1 20 км 10/10 300 м
[Sc]
+17.0 +13.8 81 +18 +18 1020.4 1011.1
12 15.05 Ю 1 20 км 8/8 300 м
[Sc]
+18.0 +16.3 90 +19 +20 1022.0 1012.7 +14.4
15 15.05 Ю 2 20 км 10/6 300 м
[Sc Ac As]
+19.8 +17.0 84 +23 +25 комфорт 1023.4 1014.1
18 15.05 Ю 3 20 км 9/6 300 м
[Sc Ac As]
+22.0 +18.8 82 +27 +29 душно 1019.9 1010.8
21 15.05 ЮВ 1 20 км 9/6 300 м
[Sc Ac As]
+20.0 +15.2 74 +23 +23 комфорт 1019.5 1010.3
00 16.05 Ю 1 20 км 9/4 300 м
[Sc Ac As]
+18.4 +16.0 86 +20 +20 1019.9 1010.7 +23.0
03 16.05 штиль 0 20 км 9/0 2000 м
[Ac As]
+18.0 +16.3 90 +18 +18 1021.0 1011.8
06 16.05 штиль 0 20 км 9/0 2000 м
[Ac As]
+17.4 +15.0 86 +17 +17 1018.9 1009.8
09 16.05 ЮВ 1 20 км 8/8 300 м
[Sc]
+16.0 +14.2 89 +17 +17 1019.4 1010.1
12 16.05 Ю 2 20 км 5/5 300 м
[Sc]
+17.8 +15.0 84 +19 +20 1020.4 1011.1 +16.0
15 16.05 ЮВ 1 20 км 4/4 450 м
[Cu hum]
+24.4 +17.4 65 +28 +36 душно 1020.7 1011.6
18 16.05 В 1 20 км 4/4 450 м
[Cu hum]
+27.4 +20.7 67 +34 +40 очень
душно
1015.0 1009.1
21 16.05 В 1 20 км 4/4 500 м
[Cu hum]
+25.0 +20.4 76 +31 +31 очень
душно
1017.5 1008.5
00 17.05 Ю 1 20 км ясно +21.0 +17.8 82 +26 +26 душно 1018.7 1009.5 +29.0
03 17.05 штиль 0 20 км 4/0 2000 м
[Ac trans]
+19.2 +17.2 88 +21 +21 комфорт 1017.6 1008.4
06 17.05 штиль 0 20 км ясно +18.4 +16.2 87 +19 +19 1017.6 1008.4
09 17.05 штиль 0 20 км ясно +17.6 +13.8 78 +18 +18 1015.7 1006.5
12 17.05 ЮВ 1 20 км 4/0 2000 м
[Ac cast]
+18.4 +16.0 86 +20 +22 1016.4 1007.1 +17.0
15 17.05 В 1 20 км 3/3 800 м
[Cu hum]
+26.0 +18.1 62 +31 +40 очень
душно
1016.5 1007.5
18 17.05 СВ 2 20 км 5/3 800 м
[Cu hum Ci]
+28.6 +18.3 54 +33 +39 очень
душно
1014.3 1005.4
00 18.05 штиль 0 20 км ясно +23.0 +19.9 83 +30 +30 очень
душно
1015.0 1005.9 +30.0
03 18.05 штиль 0 20 км ясно +21.0 +19.4 91 +25 +25 комфорт 1013.6 1004.5
09 18.05 штиль 0 20 км 5/0 2000 м
[Ac trans]
+19.4 +17.2 87 +21 +21 комфорт 1013.7 1004.5
12 18.05 СВ 2 20 км 5/0 2000 м
[Ac trans]
+22.0 +20.4 91 +28 +30 душно 1013.8 1007.4 +18.4
15 18.05 СВ 2 20 км 3/3 800 м
[Cu hum]
+28.6 +18.3 54 +33 +42 очень
душно
1012.3 1003.4
18 18.05 С 2 20 км 4/4 800 м
[Cu hum]
+31.0 +18.7 48 +36 +41 очень
душно
1011.0 1002.2
21 18.05 С 1 20 км 8/3 800 м
[Cu hum Ci]
+30.0 +19.3 53 +36 +36 очень
душно
1012.0 1003.2
00 19.05 штиль 0 20 км 8/0
[Ci]
+25.0 +19.8 73 +31 +31 очень
душно
1013.2 1004.2 +32.0
06 19.05 штиль 0 20 км 8/0
[Ci]
+21.0 +19.4 91 +25 +25 комфорт 1014.5 1005.4

 

Местоположение метеостанции Пуэрто-Касадо (Парагвай): широта -22.28 долгота -57.86 высота над уровнем моря 87 м.

В архиве по умолчанию представлена погода в Пуэрто-Касадо за последнюю неделю. Архивные данные за месяц целиком и за предыдущие месяцы, начиная с января 2011 года, Вы можете получить, выбрав интересующий диапазон дат из раскрывающегося списка и нажав кнопку "Ввод!".


*Определитесь, кто Вы:
робот инопланетянин человек

Внимание! Время в таблицах - всемирное. Для получения местного времени необходимо прибавить поправку, которая равна -4 ч.

Смотрите также архив погоды в соседних городах и на ближайших метеорологических станциях:

Погода в Порто Муртиньо (Мату-Гросу-ду-Сул, Бразилия) (72 км)
Погода в Бела-Виста (Мату-Гросу-ду-Сул, Бразилия) (137 км)
Погода в Консепсьоне (Парагвай) (138 км)
Погода в Посо Колорадо (Парагвай) (162 км)
Погода в Жардиме (Мату-Гросу-ду-Сул, Бразилия) (199 км)
Погода в Сан-Педро (Парагвай) (213 км)
Погода в Педро-Хуан-Кабальеро (Парагвай) (222 км)
Погода в Понта-Пора (Мату-Гросу-ду-Сул, Бразилия) (224 км)
Погода в Понта-Поране (Мату-Гросу-ду-Сул, Бразилия) (241 км)
Погода в Миранде (Мату-Гросу-ду-Сул, Бразилия) (256 км)

Пояснения к столбцам:

Ветер - указаны скорость ветра в м/с - средняя за 10 мин, порывы в срок и между сроками (в фигурных скобках) и направление, откуда дует ветер: С - северный, СВ - северо-восточный, В - восточный, ЮВ - юго-восточный, Ю - южный, ЮЗ - юго-западный, З - западный, СЗ - северо-западный.
Видимость - горизонтальная дальность видимости в метрах или километрах. При видимости от 1 до 10 км при отсутствии осадков обычно наблюдается дымка, при ухудшении видимости до 1 км и менее - туман. В сухую погоду видимость может ухудшаться дымом, пылью или мглою.
Явления - указаны атмосферные явления, наблюдавшиеся в срок или в последний час перед сроком; фигурными скобками обозначены явления, наблюдавшиеся между сроками (за 1-3 часа до срока); квадратными скобками обозначены град или гололедные отложения с указанием их диаметра в мм.
Облачность - указаны через наклонную черту общая и нижняя облачность в баллах и высота нижней границы облаков в метрах; квадратными скобками обозначены формы облаков: Ci - перистые, Cs - перисто-слоистые, Cc - перисто-кучевые, Ac - высококучевые, As - высокослоистые, Sc - слоисто-кучевые, Ns - слоисто-дождевые, Cu - кучевые, Cb - кучево-дождевые. Подробнее классификацию облаков см. в Атласе облаков (PDF).
T - Температура воздуха - температура, измеренная на высоте 2 м над землей.
Td - Температура точки росы - температура, при понижении до которой содержащийся в воздухе водяной пар достигнет насыщения.
f - Относительная влажность воздуха - влажноcть воздуха, измеренная на высоте 2 м над землей.
Te - Эффективная температура - температура, которую ощущает одетый по сезону человек в тени. Характеристика душности погоды. При расчете учитывается влияние влажности воздуха и скорости ветра на теплоощущения человека.
Tes - Эффективная температура на солнце - температура, которую ощущает человек, с поправкой на солнечный нагрев. Характеристика знойности погоды. Зависит от высоты солнца над горизонтом, облачности и скорости ветра. Ночью, в пасмурную погоду, а также при ветре 12 м/с и более поправка равна нулю.
P - Атмосферное давление - приведенное к уровню моря атмосферное давление.
Po - Атмосферное давление - измеренное на уровне метеостанции атмосферное давление.
Tmin - Минимальная температура - минимум температуры воздуха на высоте 2 м над землей.
Tmax - Максимальная температура - максимум температуры воздуха на высоте 2 м над землей.
R - Количество осадков - Количество выпавших осадков за период времени, мм. При наведении курсора мыши на число - период времени, за который выпало указанное количество осадков.
R24 - Количество осадков - Количество выпавших осадков за 24 часа, мм.
S - Снежный покров - Высота снежного покрова, см. При наведении курсора мыши на число - состояние снежного покрова и степень покрытия местности в баллах.